H2SAT (HEINRICH HERTZ)

Last updated on Tue Oct 15 2024 00:02:42 GMT+0000 (Coordinated Universal Time)

1 57213U 23093A 24288.38382719 -.00000002 00000+0 00000+0 0 9991 2 57213 0.0022 164.7001 0001219 47.1995 310.2155 1.00270170 4741
UTC large
Height (km)
Speed (km/s)
/
Latitude / Longitude
Inclination (degrees)
Orbital Period (minutes)
Azimuth
Elevation
Range (km)
Doppler Factor

Next 0 passes for location: London (51.5072 / 0.1276)

Sorry there are no passes over London.